This is the latest recevied weather packets stored in our database for station/object SQ6IUS-13. If no packets are shown the sender has not sent any weather packets the latest 10 day(s).
| Time | Temp. | Humidity | Pressure | Rain* | Wind** | Luminosity | Snow |
|---|---|---|---|---|---|---|---|
| 1777523094 | -3.33° C | 100% | 1032.5 hPa | - | - | - | - |
| 1777522194 | -3.89° C | 100% | 1032.5 hPa | - | - | - | - |
| 1777520396 | -4.44° C | 100% | 1032.4 hPa | - | - | - | - |
| 1777519497 | -4.44° C | 100% | 1032.4 hPa | - | - | - | - |
| 1777518598 | -4.44° C | 100% | 1032.4 hPa | - | - | - | - |
| 1777517699 | -4.44° C | 100% | 1032.3 hPa | - | - | - | - |
| 1777516799 | -4.44° C | 100% | 1032.5 hPa | - | - | - | - |
| 1777515900 | -5° C | 100% | 1032.4 hPa | - | - | - | - |
| 1777515001 | -4.44° C | 100% | 1032.3 hPa | - | - | - | - |
| 1777514102 | -4.44° C | 100% | 1032.3 hPa | - | - | - | - |
| 1777513204 | -4.44° C | 100% | 1032 hPa | - | - | - | - |
| 1777512304 | -4.44° C | 100% | 1031.8 hPa | - | - | - | - |
| 1777511405 | -4.44° C | 100% | 1031.8 hPa | - | - | - | - |
| 1777510506 | -4.44° C | 100% | 1031.7 hPa | - | - | - | - |
| 1777509607 | -4.44° C | 100% | 1031.6 hPa | - | - | - | - |
| 1777508708 | -3.89° C | 100% | 1031.6 hPa | - | - | - | - |
| 1777507810 | -3.89° C | 100% | 1031.7 hPa | - | - | - | - |
| 1777506911 | -3.33° C | 100% | 1031.7 hPa | - | - | - | - |
| 1777506013 | -2.78° C | 100% | 1031.7 hPa | - | - | - | - |
| 1777505113 | -2.78° C | 100% | 1031.8 hPa | - | - | - | - |
| 1777504214 | -3.33° C | 100% | 1031.9 hPa | - | - | - | - |
| 1777503315 | -2.78° C | 100% | 1031.8 hPa | - | - | - | - |
| 1777502416 | -2.78° C | 100% | 1031.6 hPa | - | - | - | - |
| 1777501517 | -2.78° C | 100% | 1031.7 hPa | - | - | - | - |
| 1777500617 | -2.78° C | 100% | 1031.5 hPa | - | - | - | - |
* Rain since midnight (hover to see other rain measurements)
** Current wind speed in m/s (hover to see current wind gust speed)